Location: *
(47.6569°N, 7.4256°E)
Time: 22:02:05
(UTC+00:00)

Cosmos 1812 - Pass Details

Date: 14 December 2019
Orbit: 516 x 523 km, 82.5° (Epoch: 26 January)

Event Time Altitude Azimuth Distance (km) Brightness Sun altitude
Rises 16:38:56 0° 199° (SSW) 2,642 7.0 -9.7°
Reaches altitude 10° 16:41:06 10° 204° (SSW) 1,759 6.1 -10.0°
Maximum altitude 16:44:52 53° 282° (WNW) 650 3.5 -10.6°
Drops below altitude 10° 16:48:42 10° 1° (N) 1,773 5.2 -11.2°
Sets 16:50:53 0° 6° (N) 2,667 6.0 -11.5°
